When you browse on this site, cookies collect data to enhance your experience and personalize the content and advertising you see.
Visit our Privacy Policy to learn more. By continuing to use the site, you agree to this use of cookies and data.
  • In Latvia
  • List of Countries
  • For 7 days
  • Water Temperature
  • Satellite Maps
  • Weather Map
  • Weather Widgets
  • user-avatar
    Login

    Hourly Weather Ischgl

    Today, 23 July, Tuesday

    Time Temperature Precipitation Wind Pressure Humidity
    00:00 +8°C° 0 mm 0 mps 581 mmHg 89%
    01:00 +8°C° 0 mm 0 mps 581 mmHg 90%
    02:00 +7°C° 0 mm 0 mps 580 mmHg 89%
    03:00 +7°C° 0 mm 0 mps 580 mmHg 89%
    04:00 +7°C° 0 mm 0 mps 580 mmHg 88%
    05:00 +9°C° 0 mm 0 mps 581 mmHg 80%
    06:00 +11°C° 0 mm 0 mps 582 mmHg 72%
    07:00 +13°C° 0 mm 0 mps 583 mmHg 64%
    08:00 +15°C° 0 mm 0 mps 584 mmHg 55%
    09:00 +16°C° 0 mm 0 mps 584 mmHg 45%
    10:00 +18°C° 0 mm 0 mps 585 mmHg 36%
    11:00 +21°C° 0 mm 1 mps 585 mmHg 34%
    12:00 +22°C° 0 mm 1 mps 585 mmHg 33%
    13:00 +23°C° 0 mm 1 mps 586 mmHg 31%
    14:00 +23°C° 0 mm 1 mps 585 mmHg 32%
    15:00 +23°C° 0 mm 2 mps 585 mmHg 34%
    16:00 +23°C° 0 mm 2 mps 585 mmHg 35%
    17:00 +20°C° 0 mm 2 mps 584 mmHg 46%
    18:00 +20°C° 0 mm 1 mps 584 mmHg 56%
    19:00 +19°C° 0 mm 1 mps 583 mmHg 67%
    20:00 +15°C° 0 mm 1 mps 582 mmHg 74%
    21:00 +12°C° 0 mm 0 mps 581 mmHg 81%
    22:00 +10°C° 0 mm 0 mps 580 mmHg 88%
    23:00 +10°C° 0 mm 0 mps 580 mmHg 88%

    Tomorrow, 24 July, Wednesday

    Time Temperature Precipitation Wind Pressure Humidity
    00:00 +10°C° 0 mm 0 mps 580 mmHg 88%
    01:00 +10°C° 0 mm 0 mps 580 mmHg 88%
    02:00 +11°C° 0 mm 1 mps 579 mmHg 88%
    03:00 +10°C° 0 mm 1 mps 579 mmHg 87%
    04:00 +10°C° 0 mm 1 mps 579 mmHg 87%
    05:00 +11°C° 0 mm 0 mps 580 mmHg 81%
    06:00 +13°C° 0 mm 0 mps 581 mmHg 75%
    07:00 +15°C° 0 mm 0 mps 582 mmHg 69%
    08:00 +18°C° 0 mm 1 mps 583 mmHg 62%
    09:00 +20°C° 0 mm 1 mps 583 mmHg 55%
    10:00 +21°C° 0 mm 1 mps 584 mmHg 48%
    11:00 +21°C° 0 mm 2 mps 584 mmHg 46%
    12:00 +21°C° 0 mm 2 mps 584 mmHg 44%
    13:00 +23°C° 0 mm 2 mps 584 mmHg 42%
    14:00 +23°C° 0.2 mm 2 mps 584 mmHg 45%
    15:00 +21°C° 0.2 mm 2 mps 583 mmHg 47%
    16:00 +21°C° 0.2 mm 2 mps 583 mmHg 49%
    17:00 +20°C° 0.7 mm 1 mps 583 mmHg 59%
    18:00 +19°C° 0.7 mm 1 mps 582 mmHg 68%
    19:00 +18°C° 0.7 mm 1 mps 581 mmHg 77%
    20:00 +15°C° 0.4 mm 1 mps 581 mmHg 80%
    21:00 +13°C° 0.4 mm 0 mps 580 mmHg 84%
    22:00 +11°C° 0.4 mm 0 mps 580 mmHg 87%
    23:00 +11°C° 0.4 mm 0 mps 579 mmHg 88%

    Day after tomorrow, 25 July, Thursday

    Time Temperature Precipitation Wind Pressure Humidity
    00:00 +10°C° 0.4 mm 0 mps 579 mmHg 88%
    01:00 +10°C° 0.4 mm 0 mps 579 mmHg 89%
    02:00 +9°C° 0 mm 0 mps 579 mmHg 88%
    03:00 +9°C° 0 mm 0 mps 578 mmHg 88%
    04:00 +9°C° 0 mm 0 mps 578 mmHg 87%
    05:00 +11°C° 0 mm 0 mps 579 mmHg 82%
    06:00 +12°C° 0 mm 0 mps 580 mmHg 76%
    07:00 +14°C° 0 mm 0 mps 581 mmHg 71%
    08:00 +16°C° 0 mm 0 mps 582 mmHg 63%
    09:00 +18°C° 0 mm 0 mps 583 mmHg 56%
    10:00 +20°C° 0 mm 0 mps 583 mmHg 48%
    11:00 +22°C° 0.3 mm 1 mps 583 mmHg 46%
    12:00 +23°C° 0.3 mm 1 mps 583 mmHg 43%
    13:00 +23°C° 0.3 mm 1 mps 583 mmHg 41%
    14:00 +23°C° 0.4 mm 1 mps 583 mmHg 43%
    15:00 +22°C° 0.4 mm 1 mps 583 mmHg 46%
    16:00 +22°C° 0.4 mm 1 mps 582 mmHg 48%
    17:00 +20°C° 0.9 mm 1 mps 582 mmHg 59%
    18:00 +18°C° 0.9 mm 1 mps 581 mmHg 70%
    19:00 +15°C° 0.9 mm 1 mps 580 mmHg 81%
    20:00 +15°C° 0.2 mm 1 mps 579 mmHg 81%
    21:00 +14°C° 0.2 mm 1 mps 579 mmHg 82%
    22:00 +13°C° 0.2 mm 1 mps 579 mmHg 83%
    23:00 +12°C° 0 mm 1 mps 578 mmHg 82%

    26 July, Friday

    Time Temperature Precipitation Wind Pressure Humidity
    00:00 +12°C° 0 mm 1 mps 578 mmHg 81%
    01:00 +12°C° 0 mm 1 mps 578 mmHg 81%
    02:00 +11°C° 0 mm 1 mps 577 mmHg 81%
    03:00 +11°C° 0 mm 1 mps 577 mmHg 82%
    04:00 +9°C° 0 mm 0 mps 577 mmHg 83%
    05:00 +11°C° 0.2 mm 0 mps 577 mmHg 80%
    06:00 +12°C° 0.2 mm 0 mps 578 mmHg 77%
    07:00 +14°C° 0.2 mm 0 mps 579 mmHg 75%
    08:00 +16°C° 0.3 mm 1 mps 579 mmHg 68%
    09:00 +18°C° 0.3 mm 1 mps 579 mmHg 62%
    10:00 +20°C° 0.3 mm 1 mps 580 mmHg 56%
    11:00 +20°C° 0.1 mm 1 mps 580 mmHg 50%
    12:00 +21°C° 0.1 mm 1 mps 580 mmHg 45%
    13:00 +22°C° 0.1 mm 1 mps 580 mmHg 39%
    14:00 +21°C° 0.2 mm 2 mps 580 mmHg 42%
    15:00 +20°C° 0.2 mm 2 mps 579 mmHg 46%
    16:00 +19°C° 0.2 mm 2 mps 579 mmHg 50%
    17:00 +18°C° 0.9 mm 2 mps 578 mmHg 60%
    18:00 +16°C° 0.9 mm 1 mps 577 mmHg 71%
    19:00 +14°C° 0.9 mm 0 mps 576 mmHg 81%
    20:00 +12°C° 0.2 mm 0 mps 576 mmHg 83%
    21:00 +11°C° 0.2 mm 0 mps 575 mmHg 84%
    22:00 +10°C° 0.2 mm 0 mps 574 mmHg 86%
    23:00 +11°C° 0 mm 1 mps 574 mmHg 85%

    27 July, Saturday

    Time Temperature Precipitation Wind Pressure Humidity
    00:00 +10°C° 0 mm 1 mps 574 mmHg 84%
    01:00 +10°C° 0 mm 1 mps 573 mmHg 83%
    02:00 +9°C° 0 mm 1 mps 573 mmHg 83%
    03:00 +9°C° 0 mm 1 mps 572 mmHg 84%
    04:00 +7°C° 0 mm 0 mps 572 mmHg 85%
    05:00 +9°C° 0 mm 0 mps 573 mmHg 79%
    06:00 +11°C° 0 mm 0 mps 574 mmHg 74%
    07:00 +13°C° 0 mm 0 mps 575 mmHg 69%
    08:00 +14°C° 0 mm 0 mps 575 mmHg 62%
    09:00 +16°C° 0 mm 0 mps 576 mmHg 55%
    10:00 +19°C° 0 mm 1 mps 577 mmHg 48%
    11:00 +20°C° 0.2 mm 1 mps 577 mmHg 46%
    12:00 +20°C° 0.2 mm 1 mps 577 mmHg 45%
    13:00 +21°C° 0.2 mm 1 mps 577 mmHg 43%
    14:00 +19°C° 1.3 mm 1 mps 576 mmHg 52%
    15:00 +17°C° 1.3 mm 2 mps 575 mmHg 61%
    16:00 +15°C° 1.3 mm 2 mps 574 mmHg 71%
    17:00 +14°C° 2.7 mm 2 mps 573 mmHg 77%
    18:00 +12°C° 2.7 mm 2 mps 572 mmHg 83%
    19:00 +10°C° 2.7 mm 2 mps 572 mmHg 89%
    20:00 +9°C° 0.2 mm 2 mps 572 mmHg 88%
    21:00 +10°C° 0.2 mm 1 mps 571 mmHg 88%
    22:00 +9°C° 0.2 mm 1 mps 571 mmHg 87%
    23:00 +9°C° 0 mm 1 mps 571 mmHg 87%

    28 July, Sunday

    Time Temperature Precipitation Wind Pressure Humidity
    00:00 +9°C° 0 mm 1 mps 571 mmHg 86%
    01:00 +9°C° 0 mm 1 mps 571 mmHg 85%
    02:00 +9°C° 0 mm 1 mps 571 mmHg 86%
    03:00 +8°C° 0 mm 1 mps 571 mmHg 86%
    04:00 +7°C° 0 mm 0 mps 571 mmHg 87%
    05:00 +9°C° 0 mm 1 mps 571 mmHg 84%
    06:00 +10°C° 0 mm 1 mps 572 mmHg 81%
    07:00 +12°C° 0 mm 1 mps 573 mmHg 78%
    08:00 +13°C° 0.1 mm 1 mps 573 mmHg 74%
    09:00 +14°C° 0.1 mm 1 mps 574 mmHg 69%
    10:00 +15°C° 0.1 mm 2 mps 574 mmHg 65%
    11:00 +15°C° 0.7 mm 2 mps 574 mmHg 68%
    12:00 +15°C° 0.7 mm 2 mps 574 mmHg 71%
    13:00 +15°C° 0.7 mm 2 mps 574 mmHg 74%
    14:00 +15°C° 1.2 mm 2 mps 574 mmHg 76%
    15:00 +14°C° 1.2 mm 2 mps 574 mmHg 79%
    16:00 +14°C° 1.2 mm 2 mps 574 mmHg 82%
    17:00 +13°C° 0.6 mm 2 mps 574 mmHg 84%
    18:00 +12°C° 0.6 mm 2 mps 573 mmHg 87%
    19:00 +10°C° 0.6 mm 2 mps 573 mmHg 90%
    20:00 +9°C° 0.1 mm 2 mps 573 mmHg 92%
    21:00 +9°C° 0.1 mm 1 mps 573 mmHg 95%
    22:00 +8°C° 0.1 mm 1 mps 573 mmHg 97%
    23:00 +8°C° 0 mm 1 mps 573 mmHg 96%
    Show more